Regional Weather Roundup
Issued by NWS

Home | Current Version | Previous Version | Graphics & Text | Print | Product List | Glossary On
Versions: 1 2 3 4 5 6 7 8 9 10 11 12 13 14 15 16 17 18 19 20 21 22 23 24 25 26 27 28 29 30 31 32 33 34 35 36 37 38 39 40 41 42 43 44 45 46 47 48 49 50
000
ASUS43 KTOP 270459
RWRKS

WEATHER ROUNDUP FOR KANSAS
NATIONAL WEATHER SERVICE GOODLAND KS
1100 PM CST FRI DEC 26 2014

NOTE:  "FAIR" INDICATES FEW OR NO CLOUDS BELOW 12,000 FEET WITH NO
SIGNIFICANT WEATHER AND/OR OBSTRUCTIONS TO VISIBILITY.

KSZ001>006-013>018-027>032-041>047-270600-
NORTHWEST KANSAS

CITY           SKY/WX    TMP DP  RH WIND       PRES   REMARKS
GOODLAND       CLOUDY    15  13  91 NW8       30.14R
HAYS           CLEAR     23  12  63 NW10      30.14R WCI  12
HILL CITY      MOCLDY    22  18  85 NW13      30.16R WCI  10
RUSSELL        MOCLDY    24  22  91 NW12      30.13R WCI  13
$$

KSZ061>065-074>080-084>089-270600-
SOUTHWEST KANSAS

CITY           SKY/WX    TMP DP  RH WIND       PRES   REMARKS
DODGE CITY     CLEAR     21  17  84 NW13      30.13R WCI   9
ELKHART          N/A     17  11  77 NW7         N/A
GARDEN CITY    PTCLDY    16  14  92 NW12      30.13S WCI   3
GREAT BEND     CLOUDY    27  19  74 NW9       30.15R
LIBERAL        CLEAR     19  12  73 W3        30.19R
$$

KSZ066>073-081>083-090>101-270600-
SOUTHEAST KANSAS

CITY           SKY/WX    TMP DP  RH WIND       PRES   REMARKS
CHANUTE        CLOUDY    40  36  86 NW10      30.05R WCI  33
COFFEYVILLE    CLOUDY    43  38  82 NW14      30.06R
HUTCHINSON     CLOUDY    32  28  85 NW10      30.12R WCI  24
MEDICINE LODGE   N/A     30  25  81 NW14      30.12S WCI  19
NEWTON         CLOUDY    30  25  80 NW13      30.11R WCI  20
PARSONS        CLOUDY    42  38  85 NW10      30.06R
WICHITA INTL   CLOUDY    34  28  79 NW18      30.11R WCI  23
WICHITA JABRA  CLOUDY    32  28  85 NW13      30.10R WCI  22
WINFIELD       CLOUDY    35  31  85 NW15      30.13R WCI  25
$$

KSZ007>012-019>026-033>040-048>060-102>105-270600-
NORTHEAST KANSAS

CITY           SKY/WX    TMP DP  RH WIND       PRES   REMARKS
CONCORDIA      FLURRIES  27  25  92 NW12      30.10R WCI  17
EMPORIA        LGT RAIN  34  33  96 W10       30.06R WCI  26
LAWRENCE       CLOUDY    37  32  82 W7        30.03S
MANHATTAN      CLOUDY    33  31  92 W9        30.08R
OLATHE IND     CLOUDY    38  34  85 W8        30.02R
OLATHE EXE     CLOUDY    39  35  86 NW9       30.00R
SALINA         CLOUDY    31  28  89 NW17      30.12R WCI  19
TOPEKA BILLARD LGT RAIN  38  34  85 W9        30.05R
TOPEKA FORBES  LGT RAIN  37  33  85 W9        30.05R FOG
$$


USA.gov is the U.S. government's official web portal to all federal, state and local government web resources and services.